Portada
METAR-TAF:

METAR-TAF

Aeroports :

Olney-Noble Airport

Olney-Noble, Illinois, Estats Units d'Amèrica

latitud: 38-43-19N, longitud: 088-10-35W, altitud: 147 m

Observació

L'informe es va fer fa 39 minuts, a les 18:15 UTC
Vent 6 kt del Est/Nord-Est
Temperatura 14°C
Humitat 100%
Pressió 1022 hPa
Visibilitat: 11.3 km
Cel cobert a una alçada de 1600 ft

METAR: KOLY 211815Z AUTO 06006KT 7SM OVC016 14/14 A3019 RMK AO2 T01430137

Hora: 13:54 (18:54 UTC)


TAF: manca

Observacions i pronòstics meteorològics de més de 4000 aeroports (METAR i TAF).

Les estacions disponibles són els punts grocs i vermells al mapa.

Posi el ratolí al punt desitjat per veure el nom de l'estació.

Feu clic per veure les observacions i els pronòstics meteorològics.

Per canviar el mapa: feu clic els botons verds amb una creu de color negre per apropar; al botó verd amb un guió per allunyar la imatge; o en les fletxes verdes per a mapes adjacents.


METAR-TAF: